Tracking 29892 objects as of 21-Nov-2024
HD Live streaming from Space Station
objects crossing your sky now

TITAN 3C TRANSTAGE DEB

Track TITAN 3C TRANSTAGE DEB now!


NORAD ID: 43513
Int'l Code: 1969-013R
Perigee: 37,043.4 km
Apogee: 37,473.9 km
Inclination: 1.2 °
Period: 1,511.6 minutes
Semi major axis: 43629 km
RCS: Unknown
Launch date: February 9, 1969
Source: United States (US)
Launch site: AIR FORCE EASTERN TEST RANGE (AFETR)

Note: This is SATELLITE DEBRIS
Your satellite tracking list
Your tracking list is empty




NASA's NSSDC Master Catalog

Two Line Element Set (TLE):
1 43513U 69013R   24324.10729879 -.00000088  00000-0  00000-0 0  9990
2 43513   1.2196 211.7478 0049345 141.1040 220.4267  0.95264310 22909
Source of the keplerian elements: AFSPC